• Join FlightAware (Why Join?)
  • Login
  • US Flag GB Flag 
20:38 EST


 

Airport Tracker/Info


-or-


 

Live Flight TrackerFlight Track Log ✈ N8559W ✈ 18-Oct-2013 ✈ KDAB - KAPF

Flight Track Log - Related Links

Times and Time Zones

All times are in EDT time to prevent confusion due to time zone crossing. See the N8559W flight status page for this flight to view local times or setup timezone preferences in your user account.

Time Position Orientation Groundspeed Altitude Reporting Facility
EDT Latitude Longitude Course Direction KTS MPH feet Rate Location/Type
16:56 29.0500 -81.0000 139° Southeast 97 112 5,400  Level Orlando TRACON
16:57 29.0333 -80.9833 139° Southeast 99 114 6,100 480 Climbing Orlando TRACON
16:58 29.0000 -80.9667 156° South 102 117 6,400 240 Climbing Orlando TRACON
16:59 28.9667 -80.9667 180° South 113 130 6,600  Climbing Orlando TRACON
17:00 28.9333 -80.9500 156° South 119 137 6,500  Descending Orlando TRACON
17:01 28.9000 -80.9500 180° South 116 133 6,700 360 Climbing Orlando TRACON
17:02 28.8833 -80.9667 221° Southwest 107 123 7,300 480 Climbing Orlando TRACON
17:03 28.8500 -80.9833 204° Southwest 104 120 7,800 480 Climbing Orlando TRACON
17:04 28.8167 -80.9833 180° South 96 110 8,300 360 Climbing Orlando TRACON
17:05 28.7833 -81.0000 204° Southwest 104 120 8,600 120 Climbing Orlando TRACON
17:06 28.7667 -81.0000 180° South 114 131 8,600  Level Orlando TRACON
17:07 28.7333 -81.0167 204° Southwest 111 128 8,600 -60 Level Orlando TRACON
17:08 28.7000 -81.0167 180° South 115 132 8,500  Descending Orlando TRACON
17:09 28.6667 -81.0333 204° Southwest 113 130 8,600  Climbing Orlando TRACON
17:10 28.6500 -81.0333 180° South 118 136 8,600 -60 Level Orlando TRACON
17:11 28.6167 -81.0500 204° Southwest 121 139 8,500  Descending Orlando TRACON
17:12 28.5833 -81.0667 204° Southwest 116 133 8,600  Climbing Orlando TRACON
17:13 28.5500 -81.0667 180° South 119 137 8,500 -60 Descending Orlando TRACON
17:14 28.5167 -81.0833 204° Southwest 117 135 8,500  Level Orlando TRACON
17:15 28.4833 -81.0833 180° South 110 127 8,500  Level Orlando TRACON
17:16 28.4500 -81.1000 204° Southwest 107 123 8,600  Climbing Orlando TRACON
17:17 28.4333 -81.1167 221° Southwest 118 136 8,600  Level Orlando TRACON
17:18 28.4000 -81.1333 204° Southwest 119 137 8,600  Level Orlando TRACON
17:19 28.3667 -81.1333 180° South 118 136 8,600  Level Orlando TRACON
17:20 28.3333 -81.1500 204° Southwest 108 124 8,600 -60 Level Orlando TRACON
17:21 28.3000 -81.1500 180° South 115 132 8,500  Descending Orlando TRACON
17:22 28.2667 -81.1667 204° Southwest 111 128 8,600  Climbing Orlando TRACON
17:23 28.2500 -81.1833 221° Southwest 106 122 8,600  Level Orlando TRACON
17:24 28.2167 -81.2000 204° Southwest 111 128 8,600  Level Orlando TRACON
17:25 28.1833 -81.2000 180° South 110 127 8,600  Level Orlando TRACON
17:26 28.1500 -81.2167 204° Southwest 110 127 8,600  Level Orlando TRACON
17:27 28.1167 -81.2167 180° South 116 133 8,600 -120 Level Orlando TRACON
17:29 28.0786 -81.2619 226° Southwest 112 129 8,400 -60 Descending Miami Center
17:30 28.0514 -81.2725 199° South 112 129 8,500  Climbing Miami Center
17:31 28.0217 -81.2808 194° South 107 123 8,500  Level Miami Center
17:32 27.9944 -81.2892 195° South 107 123 8,600  Climbing Miami Center
17:33 27.9650 -81.2997 198° South 107 123 8,500  Descending Miami Center
17:34 27.9353 -81.3081 194° South 107 123 8,600  Climbing Miami Center
17:35 27.9097 -81.3281 215° Southwest 107 123 8,600  Level Miami Center
17:36 27.8842 -81.3483 215° Southwest 112 129 8,600 -60 Level Miami Center
17:37 27.8564 -81.3636 206° Southwest 117 135 8,500  Descending Miami Center
17:38 27.8289 -81.3742 199° South 117 135 8,600  Climbing Miami Center
17:39 27.8000 -81.3683 170° South 107 123 8,600  Level Miami Center
17:40 27.7706 -81.3767 194° South 107 123 8,600  Level Miami Center
17:41 27.7450 -81.3897 204° Southwest 107 123 8,600  Level Miami Center
17:42 27.7158 -81.3908 182° South 107 123 8,600  Level Miami Center
17:43 27.6861 -81.4014 197° South 107 123 8,600  Level Miami Center
17:44 27.6569 -81.4050 186° South 107 123 8,600  Level Miami Center
17:45 27.6278 -81.4061 182° South 107 123 8,600  Level Miami Center
17:46 27.5981 -81.4142 194° South 107 123 8,600  Level Miami Center
17:47 27.5708 -81.4225 195° South 107 123 8,600  Level Miami Center
17:48 27.5456 -81.4308 196° South 107 123 8,600  Level Miami Center
17:49 27.5181 -81.4417 199° South 107 123 8,600  Level Miami Center
17:50 27.4883 -81.4544 201° Southwest 107 123 8,600  Level Miami Center
17:51 27.4633 -81.4581 187° South 107 123 8,600  Level Miami Center
17:52 27.4358 -81.4617 187° South 107 123 8,600  Level Miami Center
17:53 27.4086 -81.4675 191° South 107 123 8,600  Level Miami Center
17:54 27.3792 -81.4758 194° South 107 123 8,600  Level Miami Center
17:55 27.3517 -81.4839 195° South 107 123 8,600  Level Miami Center
17:56 27.3264 -81.4947 201° Southwest 107 123 8,600  Level Miami Center
17:57 27.2989 -81.5028 195° South 107 123 8,600  Level Miami Center
17:58 27.2694 -81.5133 198° South 107 123 8,600  Level Miami Center
17:59 27.2400 -81.5217 194° South 107 123 8,600  Level Miami Center
18:00 27.2125 -81.5275 191° South 107 123 8,600  Level Miami Center
18:01 27.1850 -81.5403 202° Southwest 107 123 8,600  Level Miami Center
18:02 27.1594 -81.5533 204° Southwest 107 123 8,600 -300 Level Miami Center
18:03 27.1317 -81.5756 215° Southwest 117 135 8,100 -420 Descending Miami Center
18:04 27.1000 -81.5858 196° South 123 142 7,800 -420 Descending Miami Center
18:05 27.0667 -81.5844 178° South 123 142 7,300 -420 Descending Miami Center
18:06 27.0311 -81.5853 181° South 123 142 7,000 -360 Descending Miami Center
18:07 26.9978 -81.5886 185° South 123 142 6,600 -300 Descending Miami Center
18:08 26.9597 -81.5989 194° South 123 142 6,500 -60 Descending Miami Center
18:09 26.9283 -81.6069 193° South 123 142 6,500  Level Miami Center
18:11 26.8800 -81.6161 190° South  Level FlightAware Approximate
18:18 26.6493 -81.6595 190° South  Level FlightAware Approximate
18:19 26.6164 -81.6657 190° South  Level FlightAware Approximate
18:20 26.5834 -81.6719 190° South  Level FlightAware Approximate
18:21 26.5504 -81.6781 190° South  Level FlightAware Approximate
18:22 26.5175 -81.6842 190° South  Level FlightAware Approximate
18:23 26.4845 -81.6904 190° South  Level FlightAware Approximate
18:24 26.4515 -81.6966 190° South  Level FlightAware Approximate
18:25 26.4160 -81.7029 188° South  Level FlightAware Approximate
18:26 26.3829 -81.7084 188° South  Level FlightAware Approximate
18:27 26.3499 -81.7139 188° South  Level FlightAware Approximate
18:28 26.3174 -81.7220 197° South  Level FlightAware Approximate
18:29 26.2853 -81.7327 197° South  Level FlightAware Approximate
18:30 26.2533 -81.7433 197° South  Level FlightAware Approximate
18:31 26.2210 -81.7525 190° South  Level FlightAware Approximate
18:32 26.1881 -81.7590 190° South  Level FlightAware Approximate
18:33 26.1552 -81.7656 190° South  Level FlightAware Approximate
18:34 26.1500 -81.7667 190° South  Level FlightAware Approximate
18:35 26.1524 -81.7756 190° South  Level Estimated
18:36 26.1524 -81.7756 190° South  Level Estimated
18:37 26.1524 -81.7756 190° South  Level Estimated
18:38 26.1524 -81.7756 190° South  Level Estimated